User: anonymous
Location: Bowman Observatory
(41.0326°N, 73.6210°W)
Time: 01:19:06
(UTC-04:00)
Language:

Cosmos 2298 Rocket - Orbit

View from above orbital plane
View from above orbital plane
View from above satellite
View from above satellite

Ground track
Ground track

The orbit data is extracted from the following two-line orbital elements,

1 23432U 94083B   14107.94642972  .00000256  00000-0  10249-3 0  8175
2 23432 074.0331 252.0506 0005388 008.5868 130.5187 14.33247443 10633
Epoch (UTC): 17 April 2014 22:42:51
Eccentricity: 0.0005388
inclination: 74.0331°
perigee height: 777 km
apogee height: 785 km
right ascension of ascending node: 252.0506°
argument of perigee: 8.5868°
revolutions per day: 14.33247443
mean anomaly at epoch: 130.5187°
orbit number at epoch: 1063

The dashed part of the orbit path shows where the satellite is in the earth's shadow,  

DLR